[[{"header":{"parameterUnit":"m.s-1","parameterCategory":2,"la1":30.2991,"la2":30.254,"lo1":-89.0895,"lo2":-89.0444,"dy":0.0017,"dx":0.0017,"nx":28,"ny":28,"refTime":"2025-11-21T09:00:00:Z","depth":"0","parameterNumber":2,"parameterNumberName":"U-component_of_CURRENTS"},"data":[0,0,0,0,0,0,0,0,0,0,0,0,0,0,0,0,0,0,0,0,0,0,0,0,0,0,0,0,0,0,0,0,0,0,0,0,0,0,0,0,0,0,0,0,0,0,0,0,0,0,0,0,0,0,0,0,0,0,-0.2775,-0.2776,0,-0.2807,-0.2807,-0.2807,-0.278,-0.2779,-0.2778,-0.2777,-0.2745,-0.2745,-0.2744,0,0,0,0,0,0,0,0,0,0,0,0,0,-0.2694,-0.2695,-0.2775,-0.2776,-0.2777,-0.2807,-0.2807,-0.2807,-0.278,-0.2779,-0.2778,-0.2776,-0.2745,-0.2745,-0.2744,0,0,0,0,0,0,0,0,0,0,0,0,0,-0.2726,-0.2696,-0.2775,-0.2768,-0.2768,-0.2807,-0.2807,-0.2807,-0.278,-0.2779,-0.2777,-0.2776,-0.2745,-0.2745,-0.2744,-0.2772,0,0,-0.2744,-0.2744,0,0,0,0,0,0,0,0,-0.2724,-0.2728,-0.2769,-0.2769,-0.2769,-0.279,-0.2767,-0.2793,-0.278,-0.2773,-0.2777,-0.2775,-0.2756,-0.2755,-0.2762,-0.277,-0.2769,-0.2744,-0.2744,-0.2744,-0.2744,0,0,0,0,0,0,0,-0.2722,-0.2727,-0.2785,-0.277,-0.277,-0.2765,-0.2767,-0.2772,-0.2769,-0.2773,-0.2772,-0.278,-0.2755,-0.2762,-0.2761,-0.2768,-0.2744,-0.2744,-0.2744,-0.2744,-0.2785,-0.2786,0,0,0,0,0,0,-0.2725,-0.2725,-0.2784,-0.2787,-0.2745,-0.2768,-0.277,-0.2783,-0.277,-0.2768,-0.2781,-0.2779,-0.2763,-0.2761,-0.2759,-0.2783,-0.2744,-0.2744,-0.2744,-0.2784,-0.2785,-0.2786,0,0,0,0,0,0,-0.2723,-0.273,-0.2783,-0.2758,-0.2765,-0.2771,-0.2784,-0.2784,-0.2784,-0.2777,-0.2773,-0.2781,-0.2761,-0.2759,-0.2765,-0.2781,-0.2744,-0.2744,-0.2782,-0.2784,-0.2785,-0.2835,0,0,0,0,0,0,-0.272,-0.2729,-0.2733,-0.2758,-0.2766,-0.2808,-0.2786,-0.2786,-0.2793,-0.279,-0.2776,-0.2772,-0.276,-0.2765,-0.2765,-0.2781,-0.2744,-0.2781,-0.2783,-0.2785,-0.2832,-0.2838,-0.2843,0,0,0,0,0,-0.2717,-0.2732,-0.2733,-0.274,-0.2774,-0.2809,-0.2813,-0.281,-0.2794,-0.2803,-0.2793,-0.2772,-0.2777,-0.2766,-0.2766,-0.2782,-0.278,-0.2782,-0.2785,-0.2829,-0.2837,-0.2843,0,0,0,0,0,0,-0.2696,-0.2732,-0.2733,-0.2757,-0.2782,-0.2805,-0.2811,-0.2813,-0.2814,-0.2804,-0.2788,-0.2785,-0.2798,-0.2785,-0.2773,-0.28,-0.2775,-0.2777,-0.2809,-0.2816,-0.2821,-0.2819,-0.2744,0,0,0,0,0,-0.2696,-0.2713,-0.2749,-0.2764,-0.2779,-0.2795,-0.2805,-0.2811,-0.2819,-0.2818,-0.2811,-0.2804,-0.2811,-0.2808,-0.2811,-0.2826,-0.2802,-0.2836,-0.2842,-0.2846,-0.2845,-0.2839,-0.2844,-0.2794,-0.2794,-0.2794,0,0,-0.2688,-0.2712,-0.2718,-0.276,-0.2775,-0.2808,-0.2797,-0.282,-0.2842,-0.2815,-0.283,-0.2826,-0.2821,-0.2839,-0.2843,-0.2827,-0.2846,-0.2849,-0.2854,-0.2849,-0.2842,-0.2847,-0.2851,-0.2796,-0.2795,-0.2795,0,0,-0.2691,-0.2707,-0.2726,-0.2756,-0.2791,-0.281,-0.2819,-0.2848,-0.2853,-0.2878,-0.2864,-0.2868,-0.2876,-0.2877,-0.2878,-0.2918,-0.288,-0.2919,-0.2941,-0.2936,-0.294,-0.2943,-0.2906,-0.2906,-0.2917,-0.2917,-0.2917,0,-0.268,-0.2712,-0.2736,-0.2771,-0.2794,-0.2813,-0.2846,-0.2866,-0.2891,-0.29,-0.2885,-0.2906,-0.2896,-0.2922,-0.2932,-0.293,-0.2909,-0.2915,-0.2943,-0.2945,-0.2947,-0.2909,-0.2908,-0.292,-0.292,-0.2919,-0.2919,0,-0.2703,-0.2733,-0.2748,-0.2798,-0.283,-0.2859,-0.2901,-0.2924,-0.293,-0.2946,-0.2969,-0.2964,-0.2969,-0.2975,-0.2962,-0.2982,-0.2954,-0.2953,-0.2923,-0.2955,-0.2913,-0.2911,-0.2924,-0.2923,-0.2922,-0.2921,0,0,-0.2662,-0.2748,-0.275,-0.2779,-0.2846,-0.2872,-0.2923,-0.2969,-0.299,-0.3011,-0.3028,-0.3047,-0.3034,-0.3034,-0.3024,-0.3019,-0.3009,-0.2991,-0.2989,-0.295,-0.2973,-0.2864,-0.285,-0.3013,-0.3014,-0.3014,-0.2932,0,-0.2667,-0.273,-0.2777,-0.2831,-0.2865,-0.2915,-0.2961,-0.3006,-0.3029,-0.3051,-0.3057,-0.3068,-0.3061,-0.3054,-0.3055,-0.3026,-0.3008,-0.303,-0.2952,-0.2949,-0.2844,-0.2846,-0.2738,-0.2648,-0.293,-0.2929,-0.2929,0,-0.2666,-0.2711,-0.2766,-0.285,-0.2869,-0.2906,-0.297,-0.3014,-0.3064,-0.308,-0.31,-0.3099,-0.3104,-0.3083,-0.3056,-0.307,-0.3021,-0.2994,-0.299,-0.2868,-0.2835,-0.2665,-0.2633,-0.2613,-0.2925,-0.2925,-0.2926,0,-0.2607,-0.2698,-0.2736,-0.2766,-0.2866,-0.2894,-0.2942,-0.301,-0.3046,-0.3084,-0.31,-0.3116,-0.3108,-0.3081,-0.3026,-0.304,-0.2971,-0.2984,-0.2838,-0.2829,-0.2709,-0.2689,-0.2643,-0.2948,-0.2948,-0.2948,-0.2949,0,-0.2585,-0.2612,-0.2709,-0.2727,-0.2773,-0.2856,-0.2902,-0.2954,-0.3021,-0.3046,-0.3095,-0.3101,-0.3108,-0.3074,-0.3024,-0.291,-0.2968,-0.2829,-0.2801,-0.2721,-0.2703,-0.2658,-0.2688,-0.2945,-0.2946,-0.2947,-0.2947,0,-0.2505,-0.2572,-0.2618,-0.2716,-0.2744,-0.2769,-0.2873,-0.2902,-0.2983,-0.3013,-0.3023,-0.3083,-0.3033,-0.301,-0.2947,-0.2888,-0.2744,-0.2742,-0.2627,-0.2586,-0.2427,-0.2465,-0.2379,-0.2313,-0.2571,-0.2568,-0.2565,0,-0.2467,-0.2482,-0.2579,-0.2597,-0.2634,-0.2694,-0.2732,-0.285,-0.2887,-0.2984,-0.298,-0.2977,-0.2918,-0.2797,-0.2703,-0.2577,-0.26,-0.2416,-0.2425,-0.2387,-0.2411,-0.2448,-0.2402,-0.2285,-0.228,-0.2276,-0.2273,0,-0.2378,-0.2411,-0.2444,-0.2488,-0.2525,-0.2578,-0.2643,-0.2675,-0.2797,-0.2826,-0.2827,-0.2787,-0.2698,-0.2528,-0.2397,-0.2319,-0.2359,-0.2329,-0.2333,-0.2208,-0.2204,-0.2135,-0.2362,-0.2238,-0.2242,-0.2244,-0.2246,-0.2247,-0.2286,-0.2287,-0.2326,-0.2352,-0.2394,-0.2415,-0.2405,-0.2483,-0.2507,-0.2511,-0.2592,-0.2492,-0.2414,-0.2205,-0.2123,-0.1983,-0.2071,-0.1939,-0.1992,-0.2037,-0.1958,-0.2083,-0.1906,-0.1907,-0.1908,-0.191,-0.1911,0,-0.2156,-0.2167,-0.2186,-0.2207,-0.2185,-0.2262,-0.23,-0.2257,-0.2214,-0.2257,-0.2218,-0.2129,-0.1964,-0.1915,-0.1788,-0.1692,-0.1674,-0.1669,-0.1724,-0.1696,-0.1827,-0.1798,-0.1537,-0.1537,-0.1537,-0.1537,-0.1537,-0.1537,-0.2085,-0.2047,-0.2059,-0.1976,-0.1985,-0.1911,-0.1891,-0.1841,-0.1837,-0.1734,-0.171,-0.1716,-0.1706,-0.1817,-0.1681,-0.1593,-0.1579,-0.1518,-0.156,-0.1695,-0.1726,-0.1756,-0.1735,-0.1464,-0.1464,-0.1364,-0.1363,-0.1363]},{"header":{"parameterUnit":"m.s-1","parameterCategory":2,"la1":30.2991,"la2":30.254,"lo1":-89.0895,"lo2":-89.0444,"dy":0.0017,"dx":0.0017,"nx":28,"ny":28,"refTime":"2025-11-21T09:00:00:Z","depth":"0","parameterNumber":3,"parameterNumberName":"V-component_of_CURRENTS"},"data":[0,0,0,0,0,0,0,0,0,0,0,0,0,0,0,0,0,0,0,0,0,0,0,0,0,0,0,0,0,0,0,0,0,0,0,0,0,0,0,0,0,0,0,0,0,0,0,0,0,0,0,0,0,0,0,0,0,0,-0.0138,-0.0137,0,-0.0042,-0.0041,-0.004,0.0033,0.0033,0.0034,0.0034,0.0179,0.0182,0.0186,0,0,0,0,0,0,0,0,0,0,0,0,0,-0.02,-0.0199,-0.0138,-0.0137,-0.0136,-0.0042,-0.0041,-0.0039,0.0032,0.0033,0.0034,0.0034,0.0178,0.0182,0.0186,0,0,0,0,0,0,0,0,0,0,0,0,0,-0.0144,-0.0199,-0.0138,-0.009,-0.0085,-0.0043,-0.0041,-0.0039,0.0032,0.0033,0.0034,0.0034,0.0177,0.0181,0.0187,0.0204,0,0,0.0202,0.0204,0,0,0,0,0,0,0,0,-0.0147,-0.0141,-0.0099,-0.0094,-0.0088,-0.0018,-0.0009,0.0044,0.0032,-0.001,0.0034,0.0035,0.0116,0.0126,0.0145,0.0211,0.0217,0.0203,0.0206,0.0208,0.0209,0,0,0,0,0,0,0,-0.0151,-0.0145,-0.0098,-0.0098,-0.0091,-0.0053,-0.0045,0.0001,0.005,-0.0007,-0.0002,0.0006,0.012,0.0139,0.0149,0.0219,0.0203,0.0207,0.021,0.0212,0.0325,0.0325,0,0,0,0,0,0,-0.0171,-0.0149,-0.0101,-0.0096,-0.0118,-0.0053,-0.0044,-0.0039,0.0049,0.0062,0.0005,0.0009,0.013,0.0143,0.0154,0.0184,0.0208,0.0213,0.0216,0.0325,0.0325,0.0325,0,0,0,0,0,0,-0.0172,-0.0168,-0.0105,-0.0121,-0.0111,-0.0054,-0.0049,-0.0038,-0.0018,0.0057,0.0071,0.0013,0.0131,0.0147,0.0192,0.019,0.0215,0.022,0.0325,0.0325,0.0325,0.0241,0,0,0,0,0,0,-0.0175,-0.0169,-0.0174,-0.0123,-0.0111,-0.0091,-0.0049,-0.0037,-0.0015,-0.001,0.0068,0.0083,0.0133,0.0184,0.0197,0.0198,0.0224,0.0325,0.0325,0.0325,0.0244,0.0238,0.0233,0,0,0,0,0,-0.0177,-0.0193,-0.0175,-0.017,-0.012,-0.0092,-0.0083,-0.0037,-0.0016,-0.0015,0.0041,0.008,0.0193,0.0188,0.0204,0.0205,0.0325,0.0325,0.0325,0.0246,0.0239,0.0233,0,0,0,0,0,0,-0.0222,-0.0185,-0.0165,-0.0168,-0.0137,-0.0081,-0.0077,-0.0046,-0.0001,0.0006,0.0079,0.0097,0.0135,0.0181,0.0174,0.0238,0.0266,0.0269,0.0201,0.0195,0.019,0.017,0.0228,0,0,0,0,0,-0.0236,-0.0237,-0.0193,-0.0196,-0.0185,-0.0132,-0.0116,-0.0086,-0.004,-0.0019,0.0035,0.0095,0.0146,0.0177,0.0225,0.026,0.0317,0.0273,0.0267,0.0262,0.0257,0.0344,0.0346,0.0324,0.0324,0.0324,0,0,-0.0254,-0.0235,-0.0234,-0.0206,-0.0177,-0.0171,-0.012,-0.0104,-0.0091,-0.0011,0.002,0.0075,0.015,0.0188,0.021,0.0227,0.0297,0.0262,0.0257,0.0255,0.0344,0.0346,0.0348,0.0324,0.0324,0.0324,0,0,-0.0297,-0.0274,-0.0291,-0.0272,-0.024,-0.0205,-0.0206,-0.0155,-0.0125,-0.009,-0.0028,0.0025,0.0097,0.0155,0.0194,0.0189,0.0261,0.0202,0.0166,0.0249,0.0252,0.0255,0.0322,0.0332,0.0204,0.0204,0.0204,0,-0.0321,-0.0334,-0.0292,-0.0303,-0.0292,-0.0227,-0.0241,-0.0201,-0.0141,-0.0111,-0.0094,0.0027,0.0084,0.015,0.0145,0.0177,0.023,0.0181,0.0242,0.0246,0.025,0.0319,0.0331,0.02,0.0201,0.0201,0.0202,0,-0.0375,-0.0383,-0.0392,-0.0382,-0.0365,-0.0365,-0.0309,-0.0283,-0.0238,-0.0187,-0.0121,-0.0039,0.0036,0.0061,0.0101,0.0159,0.0187,0.0219,0.0254,0.0247,0.032,0.0334,0.0194,0.0196,0.0197,0.0198,0,0,-0.0431,-0.0433,-0.0435,-0.0445,-0.0407,-0.0399,-0.0375,-0.0327,-0.0299,-0.0232,-0.0187,-0.0102,-0.0047,-0.0001,0.0064,0.0132,0.0203,0.0177,0.0184,0.0236,0.0379,0.0423,0.0442,0.0246,0.0248,0.025,0.0414,0,-0.0485,-0.0533,-0.0508,-0.0537,-0.0555,-0.0489,-0.047,-0.0412,-0.0344,-0.0282,-0.018,-0.0117,-0.0071,-0.0035,0.0039,0.0167,0.0236,0.0155,0.0385,0.0391,0.0426,0.0459,0.0495,0.0646,0.0428,0.0431,0.0432,0,-0.0545,-0.0569,-0.0618,-0.0616,-0.0615,-0.0615,-0.056,-0.0532,-0.0421,-0.0365,-0.0275,-0.0187,-0.0077,-0.0041,0.017,0.0115,0.0231,0.0328,0.0337,0.0417,0.0461,0.0622,0.068,0.0831,0.0454,0.0452,0.0451,0,-0.0613,-0.0641,-0.0684,-0.0685,-0.0671,-0.067,-0.0649,-0.0559,-0.0525,-0.0411,-0.0364,-0.0219,-0.0134,0.0021,0.0219,0.0199,0.0458,0.0465,0.0613,0.0617,0.0713,0.0722,0.094,0.061,0.061,0.061,0.0609,0,-0.0682,-0.0714,-0.0723,-0.0749,-0.0785,-0.0741,-0.074,-0.0689,-0.0601,-0.0546,-0.0416,-0.0329,-0.0113,0.0064,0.0221,0.047,0.0471,0.0617,0.0671,0.0684,0.0688,0.0875,0.0922,0.0616,0.0614,0.0613,0.0612,0,-0.0751,-0.0757,-0.081,-0.082,-0.0824,-0.0848,-0.0821,-0.0805,-0.0712,-0.0635,-0.0602,-0.0392,-0.0152,0.0072,0.0356,0.0487,0.0815,0.0792,0.0783,0.0832,0.108,0.1118,0.1384,0.1487,0.0973,0.0975,0.0977,0,-0.0792,-0.083,-0.0877,-0.0911,-0.0921,-0.0943,-0.0949,-0.0876,-0.0845,-0.0659,-0.0623,-0.0375,-0.0172,0.0254,0.0532,0.0833,0.0945,0.1027,0.0992,0.1114,0.1199,0.1221,0.1288,0.1088,0.1091,0.1093,0.1095,0,-0.0866,-0.0882,-0.0925,-0.1003,-0.1034,-0.1059,-0.1056,-0.1047,-0.0929,-0.0819,-0.0616,-0.0432,-0.0012,0.0366,0.0745,0.0922,0.1139,0.1078,0.1231,0.1328,0.1346,0.1463,0.0942,0.1114,0.1112,0.111,0.1109,0.1109,-0.0909,-0.0961,-0.1018,-0.1084,-0.1124,-0.115,-0.1146,-0.1095,-0.1009,-0.0797,-0.0624,-0.0273,0.0218,0.0769,0.0967,0.1366,0.132,0.1479,0.1522,0.1539,0.1622,0.1127,0.1338,0.1337,0.1337,0.1336,0.1336,0,-0.0955,-0.1011,-0.1091,-0.1159,-0.1205,-0.1205,-0.1188,-0.1117,-0.0984,-0.075,-0.0503,0.0114,0.0602,0.1046,0.1577,0.1794,0.184,0.1904,0.1953,0.2007,0.1609,0.1597,0.1844,0.1844,0.1843,0.1843,0.1843,0.1843,-0.098,-0.1064,-0.1108,-0.1199,-0.124,-0.123,-0.1203,-0.1046,-0.0853,-0.0428,-0.0044,0.0258,0.0862,0.1652,0.2143,0.2196,0.2381,0.2366,0.2469,0.2187,0.215,0.2114,0.2118,0.2469,0.247,0.2861,0.2865,0.2868]}],[{"header":{"parameterUnit":"m.s-1","parameterCategory":2,"la1":30.2991,"la2":30.254,"lo1":-89.0895,"lo2":-89.0444,"dy":0.0017,"dx":0.0017,"nx":28,"ny":28,"refTime":"2025-11-21T09:00:00:Z","depth":"2","parameterNumber":2,"parameterNumberName":"U-component_of_CURRENTS"},"data":[0,0,0,0,0,0,0,0,0,0,0,0,0,0,0,0,0,0,0,0,0,0,0,0,0,0,0,0,0,0,0,0,0,0,0,0,0,0,0,0,0,0,0,0,0,0,0,0,0,0,0,0,0,0,0,0,0,0,-0.251,-0.2511,0,-0.2548,-0.2548,-0.2548,-0.2531,-0.253,-0.2529,-0.2528,-0.2512,-0.2513,-0.2513,0,0,0,0,0,0,0,0,0,0,0,0,0,-0.2428,-0.2429,-0.251,-0.2511,-0.2511,-0.2548,-0.2548,-0.2548,-0.2531,-0.253,-0.2529,-0.2528,-0.2512,-0.2513,-0.2513,0,0,0,0,0,0,0,0,0,0,0,0,0,-0.2462,-0.243,-0.251,-0.2509,-0.2509,-0.2548,-0.2548,-0.2548,-0.2531,-0.253,-0.2529,-0.2528,-0.2512,-0.2512,-0.2513,-0.2538,0,0,-0.2514,-0.2514,0,0,0,0,0,0,0,0,-0.246,-0.2465,-0.2508,-0.2509,-0.2509,-0.2535,-0.2513,-0.2543,-0.2531,-0.252,-0.2528,-0.2527,-0.2517,-0.2517,-0.2524,-0.2537,-0.2536,-0.2514,-0.2514,-0.2515,-0.2515,0,0,0,0,0,0,0,-0.2458,-0.2463,-0.2523,-0.2509,-0.251,-0.2508,-0.2511,-0.2519,-0.2522,-0.2521,-0.2521,-0.2529,-0.2517,-0.2524,-0.2524,-0.2536,-0.2514,-0.2514,-0.2515,-0.2515,-0.2566,-0.2567,0,0,0,0,0,0,-0.2459,-0.2461,-0.2521,-0.2524,-0.2484,-0.2511,-0.2514,-0.2526,-0.2523,-0.2523,-0.253,-0.2528,-0.2524,-0.2523,-0.2523,-0.2555,-0.2515,-0.2515,-0.2515,-0.2565,-0.2566,-0.2567,0,0,0,0,0,0,-0.2457,-0.2464,-0.252,-0.2495,-0.2502,-0.2513,-0.2527,-0.2528,-0.2533,-0.253,-0.2528,-0.2535,-0.2523,-0.2522,-0.2535,-0.2554,-0.2515,-0.2515,-0.2564,-0.2565,-0.2567,-0.2617,0,0,0,0,0,0,-0.2455,-0.2463,-0.247,-0.2495,-0.2504,-0.2547,-0.2528,-0.2529,-0.2541,-0.2539,-0.2534,-0.2532,-0.2522,-0.2534,-0.2535,-0.2554,-0.2516,-0.2562,-0.2564,-0.2566,-0.2614,-0.2621,-0.2626,0,0,0,0,0,-0.2452,-0.2468,-0.247,-0.2477,-0.2513,-0.2549,-0.2553,-0.2555,-0.2543,-0.2554,-0.2549,-0.2532,-0.2548,-0.2536,-0.2537,-0.2556,-0.2561,-0.2564,-0.2566,-0.2612,-0.2619,-0.2626,0,0,0,0,0,0,-0.2433,-0.2468,-0.2471,-0.2496,-0.2522,-0.2546,-0.2555,-0.256,-0.2567,-0.256,-0.2548,-0.2547,-0.2566,-0.2556,-0.2543,-0.2577,-0.2551,-0.2554,-0.2586,-0.2593,-0.2598,-0.2594,-0.2516,0,0,0,0,0,-0.2434,-0.2452,-0.2488,-0.2505,-0.252,-0.2538,-0.2551,-0.2559,-0.2571,-0.2572,-0.2571,-0.257,-0.258,-0.2581,-0.2587,-0.2607,-0.2585,-0.2619,-0.2625,-0.263,-0.2627,-0.2625,-0.263,-0.2576,-0.2576,-0.2576,0,0,-0.2429,-0.2452,-0.246,-0.2502,-0.2518,-0.2551,-0.2542,-0.2569,-0.2593,-0.257,-0.2593,-0.2593,-0.2591,-0.2614,-0.2621,-0.2605,-0.2632,-0.2633,-0.2637,-0.2632,-0.2628,-0.2633,-0.2638,-0.2577,-0.2577,-0.2577,0,0,-0.2435,-0.2452,-0.2472,-0.2502,-0.2538,-0.2558,-0.2568,-0.26,-0.2608,-0.2639,-0.2628,-0.2638,-0.2653,-0.2656,-0.2659,-0.2701,-0.2666,-0.2703,-0.2726,-0.2725,-0.2729,-0.2732,-0.2701,-0.2701,-0.2703,-0.2703,-0.2703,0,-0.2427,-0.246,-0.2483,-0.2518,-0.2541,-0.2563,-0.2596,-0.2618,-0.2649,-0.2661,-0.265,-0.2679,-0.2674,-0.2702,-0.2714,-0.2714,-0.2695,-0.27,-0.2732,-0.2735,-0.2737,-0.2704,-0.2704,-0.2705,-0.2705,-0.2705,-0.2705,0,-0.2452,-0.2483,-0.2499,-0.2548,-0.258,-0.2611,-0.2653,-0.2679,-0.269,-0.2709,-0.2739,-0.274,-0.2751,-0.2758,-0.2747,-0.277,-0.2744,-0.2742,-0.2712,-0.2745,-0.2709,-0.2707,-0.2709,-0.2708,-0.2708,-0.2707,0,0,-0.2418,-0.25,-0.2504,-0.2531,-0.2598,-0.2624,-0.2677,-0.2724,-0.2747,-0.2776,-0.2798,-0.2822,-0.2815,-0.2817,-0.281,-0.2807,-0.2804,-0.2781,-0.2779,-0.2745,-0.2777,-0.2679,-0.2667,-0.2808,-0.2809,-0.2809,-0.274,0,-0.2425,-0.2487,-0.2532,-0.2586,-0.262,-0.2669,-0.2714,-0.2761,-0.2789,-0.2816,-0.2829,-0.2846,-0.2841,-0.2839,-0.2843,-0.2815,-0.2805,-0.2822,-0.2753,-0.275,-0.2656,-0.2664,-0.2477,-0.2393,-0.2738,-0.2738,-0.2737,0,-0.2428,-0.2471,-0.2526,-0.2605,-0.2623,-0.2661,-0.2725,-0.277,-0.2824,-0.2844,-0.2872,-0.2877,-0.2887,-0.2871,-0.2849,-0.2858,-0.282,-0.2796,-0.2793,-0.2681,-0.265,-0.2418,-0.2377,-0.2735,-0.2735,-0.2735,-0.2735,0,-0.2375,-0.2463,-0.2501,-0.253,-0.2625,-0.2654,-0.2699,-0.2767,-0.2803,-0.285,-0.287,-0.2893,-0.2891,-0.287,-0.2824,-0.2835,-0.2778,-0.2788,-0.2664,-0.2656,-0.2471,-0.2445,-0.2765,-0.2765,-0.2765,-0.2766,-0.2766,0,-0.2357,-0.2385,-0.2477,-0.2496,-0.254,-0.2618,-0.2663,-0.2716,-0.2783,-0.2809,-0.2867,-0.2876,-0.2891,-0.2866,-0.2824,-0.2726,-0.2778,-0.2658,-0.2633,-0.2482,-0.2459,-0.274,-0.2738,-0.2763,-0.2763,-0.2764,-0.2764,0,-0.2285,-0.235,-0.2395,-0.2488,-0.2514,-0.2539,-0.2636,-0.2662,-0.2744,-0.2776,-0.279,-0.2856,-0.2817,-0.2806,-0.2755,-0.2707,-0.2633,-0.2584,-0.239,-0.2344,-0.2511,-0.2513,-0.2442,-0.2438,-0.2435,-0.2432,-0.2429,0,-0.2252,-0.2267,-0.2359,-0.2375,-0.2412,-0.2468,-0.2501,-0.2614,-0.2645,-0.2745,-0.2742,-0.2753,-0.2705,-0.2608,-0.2524,-0.2418,-0.252,-0.2203,-0.2197,-0.2496,-0.2479,-0.2486,-0.2492,-0.1967,-0.1961,-0.1956,-0.1952,0,-0.2171,-0.2204,-0.2235,-0.2273,-0.2307,-0.2352,-0.241,-0.2435,-0.255,-0.258,-0.2585,-0.2556,-0.2488,-0.2296,-0.2194,-0.2119,-0.2208,-0.2099,-0.2452,-0.2085,-0.2043,-0.2029,-0.2051,-0.1908,-0.1913,-0.1916,-0.1918,-0.192,-0.209,-0.2089,-0.2124,-0.2144,-0.2182,-0.2192,-0.2171,-0.2238,-0.2255,-0.225,-0.2341,-0.2229,-0.2211,-0.1937,-0.1828,-0.1756,-0.191,-0.1836,-0.1853,-0.1875,-0.1839,-0.1795,-0.1605,-0.1607,-0.1609,-0.1611,-0.1613,0,-0.1971,-0.1978,-0.199,-0.2004,-0.1975,-0.2048,-0.2066,-0.2003,-0.1946,-0.1979,-0.1941,-0.1719,-0.1594,-0.1583,-0.1397,-0.1362,-0.1366,-0.1314,-0.1326,-0.1369,-0.1407,-0.1351,-0.0985,-0.0983,-0.0982,-0.098,0,0,-0.1907,-0.1866,-0.1869,-0.1777,-0.1781,-0.168,-0.1646,-0.1576,-0.1548,-0.1436,-0.1383,-0.1489,-0.152,-0.125,-0.1191,-0.1055,-0.12,-0.1,-0.1502,-0.1557,-0.1593,-0.1703,-0.1663,0,0,0,0,0]},{"header":{"parameterUnit":"m.s-1","parameterCategory":2,"la1":30.2991,"la2":30.254,"lo1":-89.0895,"lo2":-89.0444,"dy":0.0017,"dx":0.0017,"nx":28,"ny":28,"refTime":"2025-11-21T09:00:00:Z","depth":"2","parameterNumber":3,"parameterNumberName":"V-component_of_CURRENTS"},"data":[0,0,0,0,0,0,0,0,0,0,0,0,0,0,0,0,0,0,0,0,0,0,0,0,0,0,0,0,0,0,0,0,0,0,0,0,0,0,0,0,0,0,0,0,0,0,0,0,0,0,0,0,0,0,0,0,0,0,-0.0256,-0.0256,0,-0.0169,-0.0168,-0.0167,-0.0103,-0.0103,-0.0103,-0.0102,0.0028,0.0031,0.0034,0,0,0,0,0,0,0,0,0,0,0,0,0,-0.0312,-0.0312,-0.0257,-0.0256,-0.0255,-0.0169,-0.0168,-0.0166,-0.0103,-0.0103,-0.0102,-0.0102,0.0027,0.0031,0.0034,0,0,0,0,0,0,0,0,0,0,0,0,0,-0.0261,-0.0311,-0.0257,-0.0214,-0.021,-0.0169,-0.0168,-0.0166,-0.0104,-0.0103,-0.0102,-0.0102,0.0026,0.003,0.0035,0.0053,0,0,0.0049,0.0051,0,0,0,0,0,0,0,0,-0.0264,-0.0259,-0.0221,-0.0217,-0.0212,-0.0148,-0.014,-0.0091,-0.0104,-0.0142,-0.0102,-0.0102,-0.0028,-0.0019,-0.0002,0.0059,0.0064,0.005,0.0053,0.0055,0.0056,0,0,0,0,0,0,0,-0.0268,-0.0262,-0.022,-0.022,-0.0215,-0.018,-0.0172,-0.013,-0.0087,-0.0139,-0.0134,-0.0127,-0.0025,-0.0007,0.0001,0.0066,0.005,0.0054,0.0057,0.0058,0.0166,0.0166,0,0,0,0,0,0,-0.0286,-0.0266,-0.0223,-0.0218,-0.0239,-0.018,-0.0171,-0.0168,-0.0089,-0.0077,-0.0128,-0.0125,-0.0015,-0.0004,0.0006,0.0037,0.0054,0.0059,0.0062,0.0166,0.0166,0.0166,0,0,0,0,0,0,-0.0287,-0.0283,-0.0227,-0.0241,-0.0231,-0.018,-0.0176,-0.0166,-0.0148,-0.0081,-0.0068,-0.012,-0.0014,-0.0,0.0042,0.0042,0.0061,0.0065,0.0166,0.0166,0.0166,0.0094,0,0,0,0,0,0,-0.0289,-0.0284,-0.0289,-0.0242,-0.0231,-0.0212,-0.0176,-0.0165,-0.0145,-0.014,-0.007,-0.0057,-0.0013,0.0035,0.0047,0.0049,0.0069,0.0165,0.0166,0.0166,0.0097,0.0092,0.0088,0,0,0,0,0,-0.0292,-0.0304,-0.029,-0.0284,-0.0239,-0.0212,-0.0204,-0.0163,-0.0146,-0.0143,-0.0093,-0.0059,0.0044,0.0039,0.0053,0.0056,0.0165,0.0166,0.0166,0.0099,0.0093,0.0088,0,0,0,0,0,0,-0.033,-0.0298,-0.0281,-0.0282,-0.0253,-0.0203,-0.0198,-0.017,-0.0129,-0.0123,-0.0059,-0.0043,-0.0007,0.0034,0.0026,0.0088,0.0111,0.0113,0.0055,0.005,0.0046,0.003,0.0073,0,0,0,0,0,-0.0343,-0.0343,-0.0303,-0.0305,-0.0294,-0.0247,-0.0232,-0.0205,-0.0163,-0.0144,-0.0096,-0.0042,0.0005,0.0033,0.0077,0.0111,0.0157,0.0123,0.0119,0.0115,0.0111,0.0182,0.0184,0.0166,0.0166,0.0166,0,0,-0.0358,-0.034,-0.0339,-0.0313,-0.0287,-0.028,-0.0236,-0.0219,-0.0207,-0.0137,-0.0107,-0.0059,0.0009,0.0045,0.0066,0.0081,0.0143,0.0115,0.0111,0.011,0.0183,0.0185,0.0186,0.0166,0.0166,0.0166,0,0,-0.0393,-0.0373,-0.0387,-0.0368,-0.0339,-0.0308,-0.0308,-0.0261,-0.0234,-0.0202,-0.0147,-0.0098,-0.0032,0.002,0.0055,0.0054,0.0113,0.0066,0.0038,0.0106,0.0109,0.0111,0.0163,0.0171,0.0069,0.0069,0.0069,0,-0.0414,-0.0424,-0.0386,-0.0394,-0.0384,-0.0327,-0.0337,-0.0301,-0.0246,-0.0222,-0.0204,-0.0095,-0.0042,0.0018,0.0016,0.0045,0.0086,0.005,0.01,0.0104,0.0107,0.0161,0.017,0.0066,0.0066,0.0066,0.0067,0,-0.0457,-0.0464,-0.047,-0.046,-0.0444,-0.0443,-0.0393,-0.0369,-0.033,-0.0286,-0.0226,-0.0149,-0.0083,-0.0057,-0.002,0.0032,0.0053,0.008,0.0109,0.0105,0.0162,0.0173,0.0061,0.0062,0.0063,0.0064,0,0,-0.0505,-0.0504,-0.0505,-0.0516,-0.048,-0.0474,-0.0451,-0.041,-0.0391,-0.0325,-0.0289,-0.0204,-0.0156,-0.0114,-0.0053,0.0009,0.0068,0.0047,0.0053,0.0092,0.0209,0.0234,0.0249,0.0103,0.0105,0.0106,0.0235,0,-0.0551,-0.059,-0.0567,-0.0593,-0.0609,-0.0552,-0.0536,-0.0487,-0.043,-0.0379,-0.0282,-0.0226,-0.0178,-0.0144,-0.0077,0.0032,0.0095,0.003,0.0215,0.022,0.0237,0.0262,0.0224,0.0337,0.0246,0.0248,0.025,0,-0.0601,-0.0621,-0.0663,-0.0665,-0.0665,-0.0666,-0.0626,-0.0602,-0.0508,-0.0461,-0.038,-0.03,-0.0199,-0.0158,0.0023,-0.0022,0.0081,0.0168,0.0176,0.0232,0.0266,0.0331,0.0361,0.0269,0.0267,0.0266,0.0265,0,-0.0662,-0.0685,-0.0724,-0.0726,-0.0716,-0.0718,-0.0702,-0.063,-0.0606,-0.0507,-0.0472,-0.0341,-0.0265,-0.0126,0.005,0.0039,0.0255,0.0267,0.0389,0.0391,0.0413,0.0415,0.0398,0.0398,0.0397,0.0397,0.0397,0,-0.0722,-0.0751,-0.076,-0.0784,-0.0822,-0.0784,-0.0793,-0.0751,-0.0681,-0.0647,-0.0523,-0.0456,-0.0252,-0.0102,0.0043,0.0251,0.0254,0.0391,0.0433,0.0386,0.0384,0.0368,0.0362,0.0402,0.0401,0.04,0.0399,0,-0.0783,-0.0788,-0.0838,-0.0851,-0.0857,-0.0883,-0.087,-0.0865,-0.079,-0.0738,-0.0708,-0.0527,-0.0326,-0.012,0.0132,0.0249,0.0441,0.0515,0.0439,0.047,0.0529,0.0519,0.0656,0.0658,0.066,0.0662,0.0663,0,-0.0819,-0.0853,-0.0901,-0.0936,-0.0948,-0.0974,-0.0986,-0.093,-0.0913,-0.0775,-0.0751,-0.0542,-0.0377,-0.001,0.024,0.0506,0.0511,0.0618,0.0594,0.0532,0.0559,0.0546,0.0533,0.0593,0.0594,0.0594,0.0595,0,-0.0886,-0.0903,-0.0944,-0.1022,-0.1058,-0.109,-0.1097,-0.11,-0.1011,-0.0932,-0.0781,-0.0633,-0.0277,0.0024,0.0361,0.0508,0.0567,0.0636,0.062,0.0525,0.0481,0.0505,0.0493,0.0599,0.0598,0.0598,0.0598,0.0598,-0.0928,-0.0977,-0.1034,-0.1101,-0.1147,-0.1185,-0.1198,-0.1166,-0.1112,-0.0962,-0.0815,-0.0545,-0.0279,0.022,0.0438,0.0648,0.0648,0.0697,0.0692,0.0688,0.0649,0.061,0.0744,0.0745,0.0745,0.0745,0.0745,0,-0.0976,-0.1029,-0.1106,-0.118,-0.1236,-0.1239,-0.1249,-0.122,-0.1137,-0.0955,-0.0764,-0.0422,-0.008,0.0205,0.0536,0.0718,0.0695,0.0744,0.0673,0.0668,0.0664,0.062,0.071,0.071,0.0711,0.0711,0,0,-0.1003,-0.1084,-0.1124,-0.1229,-0.1278,-0.1311,-0.1307,-0.1229,-0.1095,-0.0898,-0.0672,-0.0394,-0.0052,0.0172,0.0394,0.0563,0.0564,0.0577,0.0586,0.0468,0.0461,0.0618,0.0545,0,0,0,0,0]}],[{"header":{"parameterUnit":"m.s-1","parameterCategory":2,"la1":30.2991,"la2":30.254,"lo1":-89.0895,"lo2":-89.0444,"dy":0.0017,"dx":0.0017,"nx":28,"ny":28,"refTime":"2025-11-21T09:00:00:Z","depth":"4","parameterNumber":2,"parameterNumberName":"U-component_of_CURRENTS"},"data":[0,0,0,0,0,0,0,0,0,0,0,0,0,0,0,0,0,0,0,0,0,0,0,0,0,0,0,0,0,0,0,0,0,0,0,0,0,0,0,0,0,0,0,0,0,0,0,0,0,0,0,0,0,0,0,0,0,0,-0.1779,-0.178,0,-0.1855,-0.1855,-0.1856,-0.19,-0.1901,-0.1901,-0.1901,-0.1964,-0.1965,-0.1967,0,0,0,0,0,0,0,0,0,0,0,0,0,-0.1672,-0.1673,-0.1779,-0.178,-0.1781,-0.1855,-0.1855,-0.1856,-0.19,-0.1901,-0.1901,-0.1901,-0.1964,-0.1965,-0.1967,0,0,0,0,0,0,0,0,0,0,0,0,0,-0.1728,-0.1674,-0.1778,-0.1813,-0.1817,-0.1854,-0.1855,-0.1857,-0.19,-0.1901,-0.1901,-0.1902,-0.1963,-0.1965,-0.1967,-0.197,0,0,-0.1973,-0.1974,0,0,0,0,0,0,0,0,-0.1725,-0.1732,-0.1807,-0.1811,-0.1815,-0.187,-0.1841,-0.1894,-0.19,-0.1867,-0.1901,-0.1902,-0.1932,-0.1937,-0.1948,-0.1973,-0.1975,-0.1974,-0.1975,-0.1976,-0.1976,0,0,0,0,0,0,0,-0.1721,-0.1729,-0.1807,-0.1808,-0.1813,-0.1825,-0.1833,-0.1851,-0.1894,-0.187,-0.1873,-0.1884,-0.1934,-0.1946,-0.195,-0.1976,-0.1974,-0.1975,-0.1977,-0.1977,-0.2082,-0.2083,0,0,0,0,0,0,-0.1715,-0.1725,-0.1805,-0.1809,-0.1772,-0.1826,-0.1836,-0.185,-0.1894,-0.1902,-0.1884,-0.1886,-0.1942,-0.1947,-0.1952,-0.2032,-0.1976,-0.1978,-0.1979,-0.208,-0.2082,-0.2084,0,0,0,0,0,0,-0.1712,-0.1721,-0.1802,-0.177,-0.1781,-0.1828,-0.1844,-0.1852,-0.1893,-0.1906,-0.1913,-0.1921,-0.1942,-0.1949,-0.1998,-0.2032,-0.1979,-0.198,-0.2078,-0.2081,-0.2083,-0.2144,0,0,0,0,0,0,-0.1709,-0.172,-0.1743,-0.177,-0.1783,-0.1845,-0.1844,-0.1853,-0.1898,-0.1903,-0.1939,-0.1944,-0.1943,-0.1995,-0.2,-0.2034,-0.1982,-0.2076,-0.2079,-0.2082,-0.2141,-0.2149,-0.2156,0,0,0,0,0,-0.1705,-0.173,-0.1743,-0.1754,-0.1808,-0.1847,-0.1855,-0.1887,-0.19,-0.1925,-0.1953,-0.1945,-0.2017,-0.1998,-0.2004,-0.2039,-0.2075,-0.2079,-0.2082,-0.2137,-0.2147,-0.2155,0,0,0,0,0,0,-0.1696,-0.1738,-0.1753,-0.179,-0.1826,-0.1855,-0.1886,-0.1905,-0.1947,-0.196,-0.1967,-0.1974,-0.2029,-0.2026,-0.2005,-0.2077,-0.2044,-0.2048,-0.2084,-0.2093,-0.21,-0.2091,-0.1984,0,0,0,0,0,-0.1704,-0.1736,-0.1772,-0.1806,-0.1826,-0.1861,-0.1887,-0.1911,-0.1944,-0.1965,-0.1991,-0.2017,-0.2042,-0.2063,-0.2083,-0.2124,-0.2101,-0.2149,-0.2157,-0.2163,-0.216,-0.2163,-0.217,-0.2095,-0.2095,-0.2095,0,0,-0.1711,-0.1738,-0.1757,-0.1807,-0.1837,-0.1876,-0.1879,-0.1929,-0.1967,-0.1964,-0.2032,-0.2049,-0.206,-0.2107,-0.2131,-0.2113,-0.2172,-0.2168,-0.2173,-0.2166,-0.2167,-0.2174,-0.218,-0.2097,-0.2097,-0.2097,0,0,-0.1729,-0.1765,-0.1795,-0.183,-0.1884,-0.1907,-0.1928,-0.1978,-0.2011,-0.207,-0.2077,-0.2115,-0.2161,-0.2172,-0.2182,-0.2243,-0.2213,-0.2256,-0.2288,-0.2291,-0.2297,-0.2302,-0.2275,-0.2277,-0.2258,-0.2259,-0.2259,0,-0.1738,-0.1779,-0.1811,-0.185,-0.1884,-0.1924,-0.1965,-0.2003,-0.2067,-0.2093,-0.2103,-0.2175,-0.2188,-0.2231,-0.2253,-0.226,-0.2246,-0.2252,-0.23,-0.2304,-0.2308,-0.2279,-0.2281,-0.2262,-0.2262,-0.2261,-0.2261,0,-0.1769,-0.1816,-0.1839,-0.19,-0.1941,-0.1986,-0.2037,-0.2089,-0.2132,-0.2163,-0.223,-0.2252,-0.2287,-0.2304,-0.2299,-0.2339,-0.2314,-0.2309,-0.2273,-0.2319,-0.2286,-0.2286,-0.2267,-0.2266,-0.2265,-0.2264,0,0,-0.1745,-0.1842,-0.1854,-0.1891,-0.1973,-0.2004,-0.2079,-0.2143,-0.2184,-0.225,-0.2295,-0.235,-0.236,-0.237,-0.2375,-0.2382,-0.2396,-0.2361,-0.236,-0.2328,-0.2384,-0.2225,-0.2209,-0.2403,-0.2404,-0.2404,-0.2348,0,-0.1761,-0.1834,-0.1884,-0.196,-0.1999,-0.2066,-0.2123,-0.2189,-0.2244,-0.2297,-0.2334,-0.2378,-0.2386,-0.2404,-0.2418,-0.2401,-0.2401,-0.241,-0.2351,-0.2348,-0.2195,-0.2206,-0.2406,-0.2348,-0.2347,-0.2347,-0.2347,0,-0.1765,-0.1816,-0.1892,-0.1985,-0.2009,-0.2065,-0.2156,-0.2215,-0.2295,-0.2335,-0.2391,-0.2413,-0.2447,-0.244,-0.2441,-0.2448,-0.2423,-0.2405,-0.2402,-0.2228,-0.2188,-0.2295,-0.2347,-0.2347,-0.2347,-0.2347,-0.2347,0,-0.171,-0.1817,-0.1878,-0.1912,-0.2024,-0.2075,-0.2138,-0.2228,-0.2273,-0.2357,-0.2387,-0.2437,-0.2457,-0.2451,-0.2425,-0.2437,-0.2397,-0.2407,-0.2238,-0.2226,-0.2361,-0.2356,-0.2399,-0.2399,-0.2399,-0.2399,-0.2399,0,-0.1684,-0.1736,-0.1862,-0.1891,-0.1961,-0.2052,-0.2126,-0.2194,-0.228,-0.2311,-0.2399,-0.2408,-0.2463,-0.2449,-0.2423,-0.2312,-0.2397,-0.2229,-0.2199,-0.2387,-0.2386,-0.2359,-0.2356,-0.2397,-0.2397,-0.2398,-0.2398,0,-0.1606,-0.1695,-0.1767,-0.1894,-0.1937,-0.1985,-0.211,-0.2145,-0.2249,-0.2289,-0.2314,-0.2389,-0.2361,-0.2378,-0.235,-0.2283,-0.2209,-0.2152,-0.2329,-0.2312,-0.2037,-0.2038,-0.1953,-0.1947,-0.1942,-0.1937,-0.1934,0,-0.1569,-0.1601,-0.1745,-0.1781,-0.1844,-0.1934,-0.1981,-0.211,-0.2137,-0.2244,-0.2231,-0.2263,-0.2286,-0.2105,-0.2156,-0.2078,-0.2062,-0.2015,-0.2047,-0.2011,-0.1992,-0.2,-0.2008,-0.1925,-0.1924,-0.1923,-0.1921,0,-0.1484,-0.1553,-0.1607,-0.1683,-0.1748,-0.1808,-0.1885,-0.189,-0.201,-0.213,-0.2075,-0.205,-0.2012,-0.1981,-0.1931,-0.1886,-0.2042,-0.1961,-0.1972,-0.2002,-0.1977,-0.1964,-0.1978,-0.1903,-0.1906,-0.1907,-0.1908,0,-0.1416,-0.1431,-0.1508,-0.1556,-0.1631,-0.1636,-0.1707,-0.1721,-0.1766,-0.1889,-0.186,-0.1896,-0.1973,-0.1878,-0.1832,-0.1771,-0.1756,-0.1708,-0.1733,-0.1753,-0.1717,-0.1657,-0.1443,0,0,0,0,0,-0.1335,-0.1331,-0.1367,-0.1409,-0.1474,-0.151,-0.1612,-0.1682,-0.1803,-0.1705,-0.1777,-0.1728,-0.1666,-0.1694,-0.1587,-0.1752,-0.1769,-0.1623,-0.173,-0.1803,-0.1824,-0.1801,0,0,0,0,0,0,-0.1279,-0.131,-0.1316,-0.1264,-0.1258,-0.1307,-0.136,-0.145,-0.1409,-0.1539,-0.1505,-0.1614,-0.1572,-0.168,-0.1543,-0.1552,-0.1581,-0.1663,-0.1658,-0.1791,-0.181,-0.1827,-0.181,0,0,0,0,0]},{"header":{"parameterUnit":"m.s-1","parameterCategory":2,"la1":30.2991,"la2":30.254,"lo1":-89.0895,"lo2":-89.0444,"dy":0.0017,"dx":0.0017,"nx":28,"ny":28,"refTime":"2025-11-21T09:00:00:Z","depth":"4","parameterNumber":3,"parameterNumberName":"V-component_of_CURRENTS"},"data":[0,0,0,0,0,0,0,0,0,0,0,0,0,0,0,0,0,0,0,0,0,0,0,0,0,0,0,0,0,0,0,0,0,0,0,0,0,0,0,0,0,0,0,0,0,0,0,0,0,0,0,0,0,0,0,0,0,0,-0.0216,-0.0216,0,-0.0157,-0.0157,-0.0156,-0.0114,-0.0114,-0.0114,-0.0114,-0.0014,-0.0012,-0.001,0,0,0,0,0,0,0,0,0,0,0,0,0,-0.0247,-0.0247,-0.0216,-0.0215,-0.0215,-0.0157,-0.0157,-0.0156,-0.0114,-0.0114,-0.0114,-0.0114,-0.0015,-0.0012,-0.0009,0,0,0,0,0,0,0,0,0,0,0,0,0,-0.0214,-0.0246,-0.0216,-0.0189,-0.0186,-0.0158,-0.0156,-0.0155,-0.0114,-0.0114,-0.0114,-0.0113,-0.0016,-0.0013,-0.0009,0.0008,0,0,0.0002,0.0004,0,0,0,0,0,0,0,0,-0.0216,-0.0213,-0.0193,-0.019,-0.0187,-0.0144,-0.0131,-0.0099,-0.0114,-0.014,-0.0114,-0.0113,-0.0055,-0.0048,-0.0036,0.0013,0.0017,0.0003,0.0005,0.0006,0.0007,0,0,0,0,0,0,0,-0.0218,-0.0215,-0.0191,-0.0193,-0.0189,-0.0163,-0.0159,-0.0125,-0.0098,-0.0137,-0.0135,-0.0131,-0.0053,-0.004,-0.0034,0.0019,0.0003,0.0006,0.0008,0.001,0.0097,0.0097,0,0,0,0,0,0,-0.0231,-0.0217,-0.0193,-0.019,-0.0203,-0.0163,-0.0158,-0.0157,-0.0099,-0.0091,-0.0131,-0.0129,-0.0047,-0.0038,-0.003,-0.0006,0.0006,0.001,0.0012,0.0097,0.0097,0.0097,0,0,0,0,0,0,-0.0232,-0.023,-0.0196,-0.0203,-0.0197,-0.0164,-0.0162,-0.0156,-0.0145,-0.0095,-0.0085,-0.0127,-0.0046,-0.0035,-0.0002,-0.0002,0.0012,0.0015,0.0097,0.0097,0.0097,0.0043,0,0,0,0,0,0,-0.0234,-0.0231,-0.0237,-0.0204,-0.0197,-0.0186,-0.0163,-0.0155,-0.0143,-0.014,-0.0088,-0.0079,-0.0045,-0.0008,0.0001,0.0004,0.0018,0.0097,0.0097,0.0097,0.0044,0.0041,0.0038,0,0,0,0,0,-0.0235,-0.0245,-0.0237,-0.0234,-0.0206,-0.0187,-0.0181,-0.0155,-0.0144,-0.0142,-0.0106,-0.008,0.0,-0.0005,0.0006,0.0009,0.0097,0.0097,0.0097,0.0046,0.0042,0.0038,0,0,0,0,0,0,-0.0261,-0.0241,-0.0232,-0.0235,-0.0216,-0.018,-0.0179,-0.016,-0.0131,-0.0127,-0.0079,-0.0067,-0.0039,-0.0007,-0.0014,0.0036,0.0053,0.0055,0.001,0.0007,0.0003,-0.001,0.0021,0,0,0,0,0,-0.0271,-0.0274,-0.0248,-0.0251,-0.0245,-0.0213,-0.0203,-0.0186,-0.0155,-0.0142,-0.0106,-0.0065,-0.0029,-0.0006,0.0027,0.0056,0.009,0.0066,0.0063,0.006,0.0057,0.0112,0.0113,0.0098,0.0098,0.0098,0,0,-0.0282,-0.0272,-0.0274,-0.0257,-0.0241,-0.0237,-0.0206,-0.0196,-0.0189,-0.0135,-0.0116,-0.0078,-0.0025,0.0004,0.002,0.0032,0.0081,0.006,0.0057,0.0056,0.0112,0.0114,0.0115,0.0098,0.0098,0.0098,0,0,-0.0308,-0.0298,-0.0309,-0.0298,-0.028,-0.0259,-0.0259,-0.0228,-0.021,-0.0186,-0.0145,-0.0107,-0.0056,-0.0014,0.0013,0.0015,0.0058,0.0025,0.0004,0.0057,0.0058,0.006,0.0097,0.0103,0.0028,0.0028,0.0028,0,-0.0324,-0.0334,-0.0309,-0.0316,-0.0312,-0.0273,-0.0283,-0.0257,-0.0218,-0.0203,-0.0189,-0.0105,-0.0063,-0.0015,-0.0014,0.0008,0.0038,0.0012,0.0052,0.0055,0.0057,0.0095,0.0102,0.0025,0.0026,0.0026,0.0026,0,-0.0353,-0.0363,-0.0369,-0.0365,-0.0356,-0.0358,-0.0324,-0.031,-0.0284,-0.0254,-0.0209,-0.0146,-0.0097,-0.0073,-0.0042,0.0,0.0014,0.0036,0.0058,0.0055,0.0096,0.0104,0.0021,0.0022,0.0023,0.0024,0,0,-0.0385,-0.0391,-0.0394,-0.0407,-0.0385,-0.0384,-0.037,-0.0346,-0.0338,-0.0286,-0.0265,-0.0191,-0.0156,-0.0122,-0.0071,-0.0019,0.0027,0.0012,0.0016,0.0041,0.0132,0.0112,0.0119,0.0055,0.0056,0.0057,0.0148,0,-0.0418,-0.0451,-0.0438,-0.0466,-0.048,-0.0445,-0.0438,-0.0408,-0.0371,-0.0338,-0.0259,-0.022,-0.0173,-0.0149,-0.0091,-0.0006,0.0047,-0.0001,0.0137,0.0141,0.0118,0.0128,0.0061,0.0155,0.0157,0.0158,0.0159,0,-0.045,-0.047,-0.0509,-0.0524,-0.0527,-0.0536,-0.0521,-0.0507,-0.0445,-0.0413,-0.0352,-0.029,-0.0209,-0.0168,-0.0023,-0.0057,0.0029,0.0101,0.0107,0.0113,0.0136,0.0162,0.0175,0.0173,0.0172,0.0171,0.017,0,-0.049,-0.0519,-0.0557,-0.0562,-0.0568,-0.058,-0.0578,-0.0535,-0.0525,-0.0458,-0.0438,-0.0334,-0.0277,-0.016,-0.0016,-0.0019,0.0146,0.0164,0.0231,0.0231,0.0245,0.0242,0.0273,0.0273,0.0272,0.0272,0.0272,0,-0.0526,-0.0557,-0.0585,-0.0607,-0.0653,-0.0633,-0.066,-0.0635,-0.0595,-0.058,-0.0484,-0.0438,-0.027,-0.0155,-0.003,0.0118,0.0138,0.0227,0.0255,0.0218,0.0212,0.025,0.0247,0.0276,0.0275,0.0274,0.0274,0,-0.0559,-0.0576,-0.0628,-0.0661,-0.0677,-0.0709,-0.0728,-0.0734,-0.069,-0.0664,-0.0644,-0.0509,-0.0359,-0.0192,0.0012,0.0096,0.0243,0.0298,0.0235,0.0258,0.0294,0.0287,0.0369,0.0369,0.0369,0.0369,0.0369,0,-0.0577,-0.0608,-0.0679,-0.0719,-0.0742,-0.0785,-0.081,-0.0787,-0.0783,-0.0701,-0.0684,-0.0538,-0.0432,-0.0161,0.0006,0.0232,0.0271,0.0332,0.0322,0.0286,0.0306,0.0298,0.029,0.0369,0.0369,0.0369,0.0369,0,-0.0611,-0.0643,-0.0686,-0.0775,-0.0826,-0.0872,-0.0899,-0.0903,-0.0856,-0.0823,-0.0695,-0.0544,-0.037,-0.016,0.0019,0.0182,0.0277,0.0334,0.0335,0.0326,0.0288,0.0305,0.0298,0.037,0.037,0.037,0.037,0,-0.0635,-0.0679,-0.0745,-0.0815,-0.0886,-0.0928,-0.0942,-0.0914,-0.0895,-0.0791,-0.0749,-0.0547,-0.0422,-0.0184,-0.0023,0.0132,0.017,0.0209,0.0217,0.0219,0.0144,0.0072,0.0113,0,0,0,0,0,-0.0651,-0.0701,-0.0778,-0.0853,-0.0924,-0.0956,-0.0984,-0.0978,-0.0936,-0.0849,-0.0791,-0.062,-0.0355,-0.0236,-0.0082,-0.0041,0.0174,0.0139,0.0217,0.0372,0.0371,0.0307,0,0,0,0,0,0,-0.0663,-0.0737,-0.0777,-0.0864,-0.0917,-0.0981,-0.0997,-0.0971,-0.0908,-0.0842,-0.0693,-0.06,-0.0339,-0.0436,-0.0081,-0.0035,0.0029,0.027,0.0273,0.0372,0.0371,0.0371,0.0305,0,0,0,0,0]}]]